TimeEST,TemperatureF,Dew PointF,Humidity,Sea Level PressureIn,VisibilityMPH,Wind Direction,Wind SpeedMPH,Gust SpeedMPH,PrecipitationIn,Events,Conditions,WindDirDegrees,DateUTC
12:53 AM,30.0,21.9,72,29.95,10.0,West,6.9,-,N/A,,Clear,280,2013-12-10 05:53:00
1:53 AM,28.9,21.9,75,29.97,10.0,West,8.1,-,N/A,,Clear,260,2013-12-10 06:53:00
2:53 AM,28.9,21.0,72,29.96,10.0,West,9.2,-,N/A,,Clear,270,2013-12-10 07:53:00
3:53 AM,28.9,21.0,72,29.98,10.0,West,11.5,-,N/A,,Partly Cloudy,260,2013-12-10 08:53:00
4:49 AM,28.4,21.2,74,29.94,10.0,West,10.4,-,N/A,,Overcast,260,2013-12-10 09:49:00
4:53 AM,28.9,21.0,72,29.99,10.0,West,10.4,-,N/A,,Overcast,260,2013-12-10 09:53:00
5:53 AM,28.0,19.9,72,29.96,10.0,West,9.2,-,N/A,,Mostly Cloudy,260,2013-12-10 10:53:00
6:53 AM,28.0,18.0,66,29.95,10.0,WNW,11.5,-,N/A,,Overcast,290,2013-12-10 11:53:00
7:53 AM,27.0,16.0,63,29.94,10.0,West,6.9,-,N/A,,Mostly Cloudy,270,2013-12-10 12:53:00
8:53 AM,27.0,16.0,63,29.94,10.0,West,8.1,-,0.00,,Overcast,280,2013-12-10 13:53:00
9:42 AM,26.6,17.6,69,29.87,1.5,West,10.4,-,0.00,Snow,Light Snow,280,2013-12-10 14:42:00
9:49 AM,24.8,19.4,80,29.87,0.8,West,9.2,-,0.00,Snow,Light Snow,270,2013-12-10 14:49:00
9:53 AM,25.0,19.9,81,29.93,0.8,West,8.1,-,0.00,Snow,Light Snow,280,2013-12-10 14:53:00
10:15 AM,24.8,21.2,86,29.86,0.5,West,9.2,-,0.01,Fog-Snow,Snow,270,2013-12-10 15:15:00
10:29 AM,24.8,21.2,86,29.85,0.5,West,6.9,-,0.03,Fog-Snow,Snow,280,2013-12-10 15:29:00
10:53 AM,24.1,21.0,88,29.91,0.5,West,10.4,-,0.04,Fog-Snow,Snow,280,2013-12-10 15:53:00
11:02 AM,24.8,21.2,86,29.85,0.5,West,9.2,-,0.01,Fog-Snow,Snow,280,2013-12-10 16:02:00
11:10 AM,24.8,21.2,86,29.85,0.5,West,9.2,-,0.01,Fog-Snow,Snow,260,2013-12-10 16:10:00
11:20 AM,24.8,21.2,86,29.84,0.8,West,8.1,-,0.02,Snow,Light Snow,260,2013-12-10 16:20:00
11:32 AM,24.8,21.2,86,29.84,1.0,West,11.5,-,0.02,Snow,Light Snow,260,2013-12-10 16:32:00
11:41 AM,24.8,21.2,86,29.84,1.8,West,11.5,-,0.02,Snow,Light Snow,260,2013-12-10 16:41:00
11:49 AM,24.8,21.2,86,29.83,2.5,West,11.5,-,0.02,Snow,Light Snow,260,2013-12-10 16:49:00
11:53 AM,24.1,21.9,91,29.88,2.5,West,9.2,-,0.02,Snow,Light Snow,260,2013-12-10 16:53:00
12:01 PM,24.8,21.2,86,29.83,3.0,West,10.4,-,0.01,Snow,Light Snow,260,2013-12-10 17:01:00
12:25 PM,24.8,21.2,86,29.82,6.0,West,12.7,-,0.01,,Overcast,270,2013-12-10 17:25:00
12:38 PM,24.8,21.2,86,29.82,2.5,West,12.7,-,0.01,Snow,Light Snow,260,2013-12-10 17:38:00
12:41 PM,24.8,21.2,86,29.82,3.0,West,10.4,-,0.01,Snow,Light Snow,260,2013-12-10 17:41:00
12:53 PM,25.0,21.0,85,29.87,8.0,West,12.7,-,0.01,,Overcast,270,2013-12-10 17:53:00
1:51 PM,24.8,19.4,80,29.82,1.8,NW,9.2,-,0.00,Snow,Light Snow,320,2013-12-10 18:51:00
1:53 PM,24.1,19.9,84,29.88,1.5,NNW,9.2,-,0.00,Snow,Light Snow,330,2013-12-10 18:53:00
1:56 PM,23.0,19.4,86,29.82,0.8,NW,6.9,-,0.00,Snow,Light Snow,320,2013-12-10 18:56:00
2:15 PM,23.0,19.4,86,29.82,1.5,NW,8.1,-,0.00,Snow,Light Snow,320,2013-12-10 19:15:00
2:53 PM,24.1,19.9,84,29.87,2.0,NW,3.5,-,0.00,Snow,Light Snow,310,2013-12-10 19:53:00
3:06 PM,24.8,21.2,86,29.82,1.8,West,4.6,-,0.00,Snow,Light Snow,280,2013-12-10 20:06:00
3:13 PM,24.8,19.4,80,29.82,2.0,WNW,4.6,-,0.00,Snow,Light Snow,300,2013-12-10 20:13:00
3:16 PM,24.8,21.2,86,29.82,5.0,NW,5.8,-,0.00,,Overcast,310,2013-12-10 20:16:00
3:23 PM,24.8,19.4,80,29.82,3.0,WNW,5.8,-,0.00,,Overcast,290,2013-12-10 20:23:00
3:32 PM,24.8,19.4,80,29.83,2.0,NW,4.6,-,0.00,Snow,Light Snow,310,2013-12-10 20:32:00
3:53 PM,23.0,19.0,85,29.91,1.2,NW,6.9,-,0.00,Snow,Light Snow,320,2013-12-10 20:53:00
3:59 PM,23.0,19.4,86,29.84,0.8,NW,5.8,-,0.00,Snow,Light Snow,310,2013-12-10 20:59:00
4:13 PM,21.2,19.4,93,29.85,1.2,WNW,5.8,-,0.00,Snow,Light Snow,300,2013-12-10 21:13:00
4:27 PM,21.2,19.4,93,29.86,0.8,NW,5.8,-,0.00,Snow,Light Snow,310,2013-12-10 21:27:00
4:35 PM,21.2,19.4,93,29.86,1.0,WNW,6.9,-,0.00,Snow,Light Snow,300,2013-12-10 21:35:00
4:53 PM,21.9,19.0,89,29.93,1.0,NW,4.6,-,0.01,Snow,Light Snow,310,2013-12-10 21:53:00
5:00 PM,21.2,19.4,93,29.86,1.0,WNW,8.1,-,0.00,Snow,Light Snow,300,2013-12-10 22:00:00
5:18 PM,21.2,17.6,86,29.87,3.0,WNW,5.8,-,0.00,Snow,Light Snow,300,2013-12-10 22:18:00
5:48 PM,19.4,17.6,93,29.86,7.0,NW,3.5,-,0.00,,Scattered Clouds,320,2013-12-10 22:48:00
5:53 PM,19.9,17.1,89,29.93,8.0,WNW,4.6,-,0.00,,Scattered Clouds,300,2013-12-10 22:53:00
6:53 PM,18.0,15.1,88,29.94,9.0,WSW,4.6,-,N/A,,Partly Cloudy,240,2013-12-10 23:53:00
7:53 PM,19.0,17.1,92,29.96,6.0,SW,6.9,-,N/A,,Mostly Cloudy,220,2013-12-11 00:53:00
8:53 PM,19.0,10.0,68,29.97,10.0,WSW,10.4,-,N/A,,Clear,250,2013-12-11 01:53:00
9:53 PM,19.9,9.0,62,29.98,10.0,WSW,11.5,-,N/A,,Overcast,250,2013-12-11 02:53:00
10:53 PM,21.0,9.0,60,30.01,10.0,West,10.4,20.7,N/A,,Overcast,260,2013-12-11 03:53:00
11:53 PM,21.0,10.9,65,30.05,10.0,WNW,6.9,-,N/A,,Overcast,300,2013-12-11 04:53:00